Temperature
12 12 12 12 12 12 12 13 13 14 15 14 14 13 13 13 12 12 13 13 14 14 14 15 15 15 15 15 15 15 15 15 15 15 15 15 15 15
12 12 12 12 12 12 12 12 12 13 13 14 13 13 12 12 12 12 12 13 13 14 14 14 14 14 15 15 15 15 15 15 15 15 15 15 15 15
12 12 12 11 12 12 12 12 12 12 12 13 13 13 12 11 12 12 12 12 13 13 13 14 14 14 14 14 14 15 15 15 15 15 15 15 15 15
12 12 12 12 11 11 11 12 12 12 11 12 12 12 12 11 11 11 12 12 12 13 13 13 13 14 14 14 14 14 14 14 15 15 15 15 15 15
12 12 12 12 11 11 11 11 12 12 11 12 12 12 12 11 11 11 11 11 12 12 12 13 13 13 13 14 14 14 14 14 14 14 15 15 15 15
12 12 12 12 11 11 11 11 11 11 11 11 12 12 12 12 11 11 12 12 12 12 12 12 12 13 13 13 13 13 14 14 14 14 14 14 14 15
12 12 12 12 12 12 11 11 11 11 11 12 12 12 12 12 12 11 12 12 12 12 12 12 12 12 13 13 13 13 13 13 13 14 14 14 14 14
13 12 12 12 12 12 12 12 11 11 11 11 11 12 11 11 11 11 11 11 12 12 12 12 12 12 12 12 13 12 13 13 13 13 14 14 14 14
13 12 12 13 12 11 12 11 12 11 11 11 10 10 11 11 10 10 10 10 11 11 11 11 12 12 12 12 12 12 12 12 13 13 13 13 14 14
13 13 12 12 12 11 11 11 11 10 11 11 10 10 10 10 10 10 10 10 10 10 10 10 11 12 12 12 12 12 12 12 13 13 13 13 13 14
13 12 12 12 12 12 12 11 11 11 11 11 10 10 10 10 10 9 9 10 10 11 11 11 11 11 12 12 12 12 12 12 12 13 13 13 13 13
13 12 12 12 12 12 12 11 11 11 11 11 10 10 10 10 10 10 9 10 10 11 11 11 11 11 11 12 12 12 12 12 12 12 12 13 13 13
13 13 13 13 12 12 12 11 11 11 10 10 10 10 10 10 10 9 9 9 10 10 11 10 10 10 11 11 12 12 12 12 12 12 12 12 12 12
12 12 13 12 12 12 12 12 12 11 10 10 11 11 11 11 11 10 10 9 9 9 10 10 9 10 10 10 11 11 11 11 11 11 12 12 12 12
12 12 12 12 12 12 12 11 11 11 10 10 11 11 11 11 10 10 9 9 9 9 9 9 9 9 9 10 10 11 11 11 11 11 11 11 11 11
11 11 11 11 11 11 11 11 11 11 11 11 11 11 11 10 10 10 10 9 9 9 9 9 9 9 9 9 9 10 10 10 11 11 11 11 11 11
10 10 11 11 11 11 11 11 11 10 10 10 10 10 10 10 10 10 9 9 9 9 9 9 9 9 9 9 9 9 10 10 10 10 10 10 11 11
10 10 10 11 11 11 11 11 11 11 11 10 10 10 10 10 10 9 9 9 9 9 9 9 9 9 9 9 9 9 9 10 10 10 10 10 10 11
10 10 10 11 11 11 11 11 11 11 10 10 10 10 10 10 9 9 9 9 9 9 9 9 9 8 9 9 10 9 9 10 10 10 10 10 10 11
10 10 10 10 10 10 10 10 10 10 10 10 10 9 9 9 9 9 9 9 9 8 8 8 8 9 9 9 10 10 10 9 9 9 10 10 10 10
9 9 10 10 10 10 10 10 10 10 10 10 9 9 9 9 9 9 9 9 8 8 8 8 9 9 9 8 8 9 9 9 9 9 9 9 9 10
9 9 9 9 9 9 9 9 9 9 9 9 9 9 9 9 9 9 9 8 8 8 8 9 9 8 8 8 8 9 9 9 9 9 9 9 9 9
8 8 8 8 9 9 9 9 9 9 9 9 9 9 9 9 9 9 9 8 8 8 8 8 8 8 8 8 8 8 9 9 9 9 9 9 9 9
Wind_Speed
5 5 6 5 5 6 6 7 8 9 8 5 5 4 5 7 4 8 9 4 6 9 10 10 10 12 13 14 16 18 20 22 23 25 28 29 31 32
4 5 6 6 5 6 6 7 7 9 10 8 7 7 7 10 7 9 11 10 14 14 12 11 12 12 14 15 15 16 18 20 21 23 25 27 28 30
6 6 7 7 7 7 6 7 8 8 10 10 9 8 8 10 10 11 12 12 13 14 12 12 13 14 15 16 16 17 17 18 19 21 22 24 26 28
7 7 8 7 7 8 7 8 8 8 10 12 10 10 10 9 10 10 12 12 13 10 12 13 15 16 17 18 18 18 18 18 19 20 21 23 24 26
8 8 8 8 9 8 8 9 9 9 9 11 11 9 10 9 10 11 12 10 13 14 13 17 18 18 18 18 19 19 20 20 20 20 21 22 23 24
9 9 10 10 10 10 9 10 10 10 10 11 11 10 9 9 9 10 10 9 10 11 12 12 14 17 19 20 20 21 21 21 20 21 21 22 23 24
10 10 11 10 9 9 10 10 10 10 10 11 11 11 10 9 9 9 10 10 10 10 10 11 11 12 14 20 23 23 22 21 20 21 21 22 23 23
11 11 11 11 13 15 15 15 14 13 13 12 12 12 12 11 10 10 11 11 11 9 9 11 11 12 11 14 14 18 21 20 20 20 21 22 22 23
12 11 11 11 10 12 14 18 18 20 18 16 16 15 14 12 12 13 12 13 13 11 11 13 12 12 12 14 11 14 16 18 19 20 20 21 22 22
14 14 14 14 13 12 13 14 14 14 16 16 16 16 16 13 12 13 14 14 15 13 13 14 13 13 12 12 13 18 19 19 20 20 20 21 21 22
15 15 15 15 13 11 13 15 15 15 15 18 18 17 16 14 12 12 14 14 14 13 11 13 13 13 13 13 13 19 20 20 20 20 20 20 20 19
13 14 15 17 14 12 14 15 16 15 14 13 14 17 18 18 18 16 15 15 15 14 12 11 13 12 13 12 12 11 14 18 22 21 21 20 18 14
13 13 12 12 16 16 15 15 16 14 14 15 14 14 14 13 14 15 15 15 15 15 12 10 12 12 12 12 11 10 11 10 12 15 20 21 20 16
14 14 12 8 11 13 14 16 15 12 13 14 15 14 13 13 12 13 14 15 15 17 16 14 13 13 14 14 13 11 11 10 11 11 10 14 18 21
14 15 14 10 11 13 17 18 14 13 14 14 15 15 13 12 11 11 12 14 16 18 19 18 16 15 15 15 15 14 12 11 11 11 11 10 10 10
13 14 15 16 16 16 13 13 13 14 14 15 14 14 12 12 12 12 12 12 13 14 16 19 18 18 16 17 15 15 14 12 11 11 11 11 11 11
11 12 13 13 13 13 13 13 13 13 14 14 14 14 13 12 12 11 11 12 13 14 13 12 14 15 18 16 15 15 15 14 13 12 11 12 12 12
10 13 15 14 14 14 13 12 12 13 13 13 13 13 13 12 11 11 11 12 13 13 13 12 11 11 12 13 15 17 15 14 13 13 13 13 13 12
10 14 14 14 14 14 14 14 13 13 12 13 13 13 12 12 11 12 12 12 13 13 13 12 11 12 14 15 14 17 17 14 13 13 13 13 13 12
11 13 14 13 13 13 14 13 13 12 11 12 12 13 12 12 12 12 12 14 13 13 13 12 12 13 14 15 13 11 16 15 13 13 12 11 11 9
12 12 13 13 13 13 13 12 13 12 12 11 12 13 12 12 12 13 13 14 14 13 13 13 12 13 12 11 12 13 12 14 13 11 11 10 10 10
13 13 13 13 13 13 12 12 12 12 13 13 12 12 12 12 13 14 14 13 13 13 14 12 12 11 11 13 14 14 12 9 9 9 8 8 8 8
13 13 13 12 12 11 12 13 14 12 12 12 12 12 12 12 12 13 13 13 13 13 13 12 11 10 12 12 12 12 13 11 8 8 8 7 8 8
Wind_Direction
256 245 263 281 277 284 285 288 293 297 298 294 285 292 293 291 305 291 286 273 284 281 276 269 258 250 244 241 239 238 237 237 236 235 233 232 232 232
262 278 275 276 280 277 279 279 279 285 290 295 292 294 307 300 282 286 281 273 258 255 259 264 262 255 249 245 243 242 239 237 236 234 234 233 233 235
253 252 257 275 278 280 274 274 274 277 281 287 289 288 283 282 291 288 281 276 267 229 234 253 260 256 251 248 245 244 242 240 238 236 234 233 233 234
257 260 262 261 260 269 277 277 278 279 278 284 288 285 280 278 276 278 278 275 276 245 221 245 255 254 250 248 246 244 243 242 241 241 239 236 234 234
258 260 262 263 262 266 269 273 276 273 272 278 282 284 281 278 281 275 273 270 273 265 233 235 241 245 246 246 245 244 242 242 242 243 244 242 240 237
258 259 260 260 260 264 264 263 268 275 274 272 277 281 278 276 273 277 277 266 266 273 270 260 242 234 240 241 240 240 240 240 241 242 244 245 244 242
257 256 257 255 266 264 270 273 272 271 275 276 278 279 279 283 280 284 284 286 275 269 269 265 253 247 238 232 232 233 234 237 239 241 243 244 245 245
259 261 260 243 238 231 243 255 264 267 271 277 279 280 281 282 282 282 283 283 281 275 272 271 268 263 257 253 233 216 222 231 238 242 243 244 244 245
260 262 265 265 248 254 238 229 240 243 247 259 271 276 280 279 283 280 276 278 281 286 284 276 271 265 261 257 224 213 222 232 239 242 243 244 244 244
258 258 260 266 263 258 263 260 255 248 237 238 251 261 267 274 273 272 278 275 270 264 260 267 270 267 264 260 226 213 222 231 237 240 242 243 244 245
258 259 258 260 252 232 252 261 263 263 251 237 243 254 265 271 268 270 270 269 271 269 255 257 266 268 267 263 248 213 218 228 234 237 239 241 242 243
263 260 250 244 250 222 243 255 260 263 268 263 240 243 250 250 237 242 255 262 267 270 265 259 263 267 270 263 256 238 225 225 227 231 234 237 235 238
272 270 267 222 224 226 233 250 257 266 270 270 265 258 251 248 242 234 237 249 260 264 267 261 263 264 264 269 267 259 253 248 232 230 227 227 224 222
271 273 274 230 222 227 234 244 249 255 261 264 263 262 259 256 251 247 243 244 250 259 268 271 268 266 267 267 266 262 255 252 251 250 243 215 214 221
268 274 280 261 245 245 239 237 238 244 250 255 259 261 261 261 261 257 254 251 252 255 256 253 253 257 258 261 265 264 261 256 250 250 249 242 232 221
265 266 251 245 245 255 257 237 236 242 248 255 260 263 263 260 253 253 255 253 253 254 247 244 245 249 252 254 258 261 259 258 254 249 248 247 242 237
300 282 273 265 257 252 249 246 246 245 242 249 256 260 260 257 255 252 253 255 256 259 260 251 242 238 243 251 255 255 257 256 254 250 248 250 247 242
276 270 270 268 266 265 262 258 252 252 252 253 254 257 259 259 259 255 252 252 254 257 259 260 255 249 246 246 238 251 254 254 253 248 246 247 249 243
255 264 268 269 269 268 266 264 262 259 255 254 254 254 255 255 257 257 255 253 253 255 258 258 255 251 251 253 243 222 241 249 249 247 243 243 249 249
261 268 272 272 271 270 269 267 266 263 256 252 251 251 250 251 253 253 253 253 252 254 255 254 251 247 249 258 266 253 221 238 245 245 245 244 247 250
279 276 275 276 276 275 272 269 266 264 261 256 253 252 250 249 250 251 253 251 251 254 254 254 253 251 255 260 262 259 247 223 236 245 248 245 244 239
283 281 280 279 278 275 272 268 266 265 262 256 253 252 251 249 250 251 253 253 250 249 254 257 257 253 248 248 253 258 257 246 224 225 246 252 246 241
287 285 282 280 276 273 271 269 269 269 267 262 258 254 254 252 251 253 254 253 252 253 254 256 255 252 250 248 252 254 253 249 239 229 232 228 235 248
Height
1556 1556 1555 1556 1555 1554 1553 1553 1552 1549 1548 1547 1546 1545 1544 1543 1541 1540 1540 1539 1538 1539 1540 1541 1541 1542 1543 1544 1545 1546 1548 1549 1551 1553 1556 1558 1561 1564
1553 1552 1552 1553 1552 1552 1551 1550 1549 1548 1546 1544 1543 1543 1540 1539 1538 1536 1535 1534 1534 1534 1534 1535 1536 1537 1537 1538 1539 1540 1541 1543 1544 1546 1548 1550 1553 1556
1551 1550 1550 1549 1549 1549 1548 1547 1546 1545 1543 1541 1540 1538 1536 1534 1533 1532 1531 1530 1530 1529 1528 1529 1530 1530 1531 1532 1533 1534 1535 1536 1537 1539 1541 1543 1545 1548
1549 1548 1547 1547 1545 1545 1544 1544 1542 1541 1539 1537 1535 1534 1532 1530 1528 1526 1527 1527 1526 1524 1522 1522 1523 1524 1524 1525 1526 1527 1528 1529 1530 1532 1533 1535 1537 1539
1545 1545 1544 1543 1542 1542 1540 1539 1538 1537 1535 1533 1531 1530 1528 1527 1525 1523 1522 1520 1520 1519 1517 1516 1516 1516 1517 1518 1519 1520 1521 1522 1523 1525 1526 1527 1529 1531
1541 1541 1540 1539 1538 1537 1536 1534 1534 1532 1531 1529 1527 1526 1524 1522 1521 1519 1518 1516 1515 1514 1513 1512 1510 1509 1509 1510 1511 1512 1514 1515 1516 1517 1518 1519 1521 1523
1537 1536 1535 1534 1533 1532 1532 1531 1530 1528 1527 1525 1523 1522 1520 1519 1517 1515 1514 1512 1510 1509 1508 1506 1506 1504 1503 1503 1503 1504 1505 1507 1508 1509 1510 1511 1513 1514
1533 1532 1531 1529 1527 1526 1525 1524 1524 1522 1522 1520 1519 1517 1515 1514 1512 1511 1509 1507 1505 1505 1503 1501 1500 1499 1498 1498 1497 1496 1497 1498 1500 1501 1502 1503 1504 1505
1527 1526 1526 1525 1523 1521 1519 1517 1516 1515 1514 1514 1512 1511 1510 1509 1507 1505 1504 1502 1500 1499 1498 1495 1494 1492 1492 1491 1490 1490 1490 1490 1491 1492 1493 1495 1496 1497
1521 1520 1519 1518 1517 1516 1514 1513 1511 1509 1508 1506 1504 1503 1503 1502 1500 1499 1497 1495 1493 1491 1491 1489 1487 1486 1485 1484 1483 1482 1482 1482 1483 1484 1485 1486 1487 1488
1515 1514 1512 1511 1510 1509 1507 1505 1504 1503 1502 1499 1498 1496 1495 1494 1493 1492 1491 1490 1487 1486 1485 1483 1481 1480 1479 1477 1476 1475 1474 1474 1474 1475 1476 1477 1478 1479
1508 1507 1505 1504 1503 1502 1500 1498 1497 1496 1495 1494 1491 1488 1487 1486 1485 1484 1483 1483 1481 1479 1478 1477 1475 1474 1472 1471 1470 1469 1467 1466 1466 1467 1468 1469 1470 1470
1501 1500 1499 1497 1495 1494 1493 1491 1489 1489 1487 1486 1484 1482 1480 1478 1477 1476 1474 1474 1473 1472 1472 1471 1469 1468 1466 1464 1464 1463 1462 1461 1460 1459 1459 1460 1461 1462
1492 1492 1491 1489 1487 1486 1484 1482 1482 1480 1479 1478 1477 1475 1473 1472 1470 1469 1467 1466 1464 1463 1463 1463 1461 1460 1460 1458 1457 1456 1455 1455 1454 1454 1453 1453 1453 1454
1483 1482 1481 1479 1478 1476 1474 1474 1473 1471 1470 1469 1468 1466 1465 1464 1462 1461 1459 1457 1455 1453 1453 1453 1452 1452 1452 1451 1450 1449 1448 1448 1447 1447 1447 1446 1446 1446
1475 1473 1471 1469 1468 1466 1465 1464 1462 1462 1461 1460 1459 1457 1456 1455 1453 1452 1451 1449 1447 1446 1444 1443 1442 1442 1442 1442 1442 1441 1441 1440 1440 1440 1439 1439 1439 1439
1467 1465 1463 1462 1460 1458 1457 1456 1454 1453 1452 1450 1450 1448 1447 1446 1445 1444 1442 1441 1439 1438 1437 1436 1435 1433 1433 1433 1433 1432 1432 1432 1432 1432 1432 1431 1432 1432
1459 1456 1455 1453 1451 1450 1448 1447 1446 1444 1443 1442 1441 1440 1439 1438 1437 1436 1434 1433 1431 1430 1429 1428 1428 1427 1426 1424 1424 1424 1424 1424 1424 1424 1424 1424 1424 1425
1450 1448 1446 1444 1442 1441 1439 1438 1437 1436 1434 1433 1432 1431 1430 1429 1428 1427 1426 1424 1423 1422 1421 1421 1420 1419 1418 1416 1415 1416 1415 1415 1416 1416 1416 1416 1417 1418
1442 1440 1438 1436 1434 1432 1431 1429 1428 1427 1425 1424 1423 1422 1422 1420 1419 1418 1417 1416 1415 1414 1413 1412 1412 1411 1410 1409 1409 1408 1407 1407 1408 1408 1409 1409 1409 1410
1435 1433 1430 1428 1426 1424 1422 1420 1419 1418 1417 1416 1415 1414 1413 1412 1411 1410 1409 1408 1407 1406 1405 1404 1404 1404 1403 1402 1401 1399 1400 1400 1400 1401 1402 1402 1403 1403
1427 1425 1423 1420 1418 1416 1414 1412 1411 1409 1408 1406 1406 1405 1404 1404 1402 1402 1401 1400 1399 1398 1397 1397 1397 1396 1395 1394 1392 1392 1392 1393 1392 1393 1394 1395 1395 1396
1420 1417 1414 1412 1410 1407 1405 1404 1402 1401 1399 1398 1397 1396 1396 1395 1394 1393 1393 1392 1391 1391 1390 1389 1389 1388 1387 1387 1386 1385 1385 1385 1386 1386 1387 1387 1389 1390